Regional Weather Roundup
Issued by NWS

Home | Current Version | Previous Version | Graphics & Text | Print | Product List | Glossary On
Versions: 1 2 3 4 5 6 7 8 9 10 11 12 13 14 15 16 17 18 19 20 21 22 23 24 25 26 27 28 29 30 31 32 33 34 35 36 37 38 39 40 41 42 43 44 45 46 47 48 49 50
000
ASUS45 KSLC 291910
RWRUT

UTAH REGIONAL WEATHER ROUNDUP
NATIONAL WEATHER SERVICE SALT LAKE CITY UT
100 PM MDT FRI AUG 29 2014

UTZ001>011-023>025-292000-

NORTHERN UTAH

CITY           SKY/WX    TMP DP  RH WIND       PRES   REMARKS
HILL AFB       SUNNY     81  44  26 VRB7      30.11F
LOGAN          SUNNY     78  52  40 VRB5      30.09F
OGDEN          SUNNY     83  46  27 VRB5      30.08F
PROVO AIRPORT  MOSUNNY   77  54  44 VRB5      30.12F
SALT LAKE CITY MOSUNNY   84  43  23 S13       30.06F
VERNAL         SUNNY     71  54  54 CALM      30.17F
WENDOVER       SUNNY     81  39  22 E8        30.06F
HEBER CITY     SUNNY     72  50  46 CALM      30.17F
WEST JORDAN    SUNNY     82  54  36 S16       30.10F

$$

UTZ012>022-026-027-292000-

SOUTHERN UTAH

CITY           SKY/WX    TMP DP  RH WIND       PRES   REMARKS
BRYCE CANYON   SUNNY     74  35  24 MISG      30.33F
CEDAR CITY     SUNNY     84  29  13 MISG      30.16F
MILFORD        SUNNY     86  35  16 S9        30.11F
MOAB/CYNLANDS  SUNNY     83  44  25 SE6       30.10F
PRICE          SUNNY     77  36  22 SW6       30.21F
ST GEORGE      CLEAR     88  46  23 NW3       30.00F

$$

REGIONAL REPORTS     COLORADO/ARIZONA

CITY           SKY/WX    TMP DP  RH WIND       PRES   REMARKS
CRAIG, CO      SUNNY     72  45  37 CALM      30.22F
GRAND JUNCTION SUNNY     75  48  38 CALM      30.15F
RIFLE          MOSUNNY   73  49  42 CALM      30.18F
MONTROSE       SUNNY     75  45  34 NW3       30.22F
CORTEZ         SUNNY     80  38  22 N8        30.19F
PAGE, AZ       SUNNY     87  42  20 E6        30.09F
GRAND CANYON   SUNNY     79  32  18 E7        30.26F
KINGMAN        SUNNY     95  34  11 VRB6      30.02F HX  90
FLAGSTAFF      SUNNY     75  35  23 NE6       30.29F

$$

REGIONAL REPORTS    NEVADA/IDAHO/WYOMING

CITY           SKY/WX    TMP DP  RH WIND       PRES   REMARKS
LAS VEGAS, NV  MOSUNNY   98  32  10 CALM      29.88F HX  92
ELY            SUNNY     83  29  14 SE5       30.17F
ELKO           MOSUNNY   84  33  16 N3        30.08F
POCATELLO, ID  SUNNY     83  40  21 NW6       30.06F
BURLEY         SUNNY     78  48  34 W5        30.03F
EVANSTON, WY   SUNNY     73  40  30 S7        30.26F
ROCK SPRINGS   SUNNY     74  38  27 W15G22    30.22F

$$


USA.gov is the U.S. government's official web portal to all federal, state and local government web resources and services.